This demonstration page uses our WeatherBlox Daily Observations layout. Learn more.

Hourly Observations for August 1, 2019

Temp ( °F °C ) Dew Point ( °F °C ) Humidity (%) Winds ( mph kmh ) Pressure ( in mb ) Visibility ( mi km ) Precip ( " mm )
12:15 am 00:15 Clear 71 21.7 67 19.5 87 87 E 9 15 29.94 1014 10 16.09344 0 0
12:35 am 00:35 Clear 70 21 67 19.5 91 91 ENE 8 13 29.94 1014 10 16.09344 0 0
12:55 am 00:55 Clear 69 20.5 67 19.5 94 94 ENE 7 11 29.94 1014 10 16.09344 0 0
1:15 am 01:15 Clear 68 20.2 67 19.5 96 96 ENE 7 11 29.94 1014 10 16.09344 0 0
1:35 am 01:35 Clear 68 20.1 67 19.2 95 95 ENE 8 13 29.94 1014 10 16.09344 0 0
1:55 am 01:55 Clear 68 20 67 19.2 95 95 E 7 11 29.94 1014 10 16.09344 0 0
2:15 am 02:15 Clear 67 19.6 66 19 96 96 E 8 13 29.97 1015 10 16.09344 0 0
2:35 am 02:35 Clear 67 19.7 66 19 96 96 E 10 17 29.97 1015 10 16.09344 0 0
2:55 am 02:55 Clear 67 19.5 66 18.9 96 96 ENE 9 15 29.97 1015 10 16.09344 0 0
3:15 am 03:15 Clear 67 19.3 66 19 98 98 E 8 13 29.97 1015 10 16.09344 0 0
3:35 am 03:35 Clear 66 19.1 66 18.8 98 98 E 7 11 29.97 1015 10 16.09344 0 0
3:55 am 03:55 Clear 66 18.7 65 18.6 99 99 E 7 11 29.97 1015 10 16.09344 0 0
4:15 am 04:15 Clear 66 18.7 65 18.6 99 99 E 8 13 29.97 1015 10 16.09344 0 0
4:35 am 04:35 Partly Cloudy 65 18.6 65 18.6 100 100 E 7 11 29.97 1015 10 16.09344 0 0
4:55 am 04:55 Mostly Cloudy 65 18.5 65 18.5 100 100 E 7 11 29.97 1015 7 11.265408 0 0
5:15 am 05:15 Cloudy 65 18.6 65 18.6 100 100 E 7 11 29.97 1015 10 16.09344 0 0
5:35 am 05:35 Cloudy 65 18.6 65 18.6 100 100 E 8 13 30 1016 10 16.09344 0 0
5:55 am 05:55 Cloudy 66 18.7 65 18.5 99 99 E 10 17 30 1016 10 16.09344 0 0
6:15 am 06:15 Cloudy 66 18.7 65 18.5 99 99 E 10 17 30 1016 10 16.09344 0 0
6:35 am 06:35 Cloudy 66 18.8 66 18.7 99 99 E 10 17 30 1016 10 16.09344 0 0
6:55 am 06:55 Cloudy 66 19 66 19 100 100 E 7 11 30 1016 7 11.265408 0 0
7:15 am 07:15 Cloudy with Mist and Fog 66 19 66 19 100 100 E 8 13 30 1016 4 6.437376 0 0
7:35 am 07:35 Cloudy with Mist and Fog 66 19.1 66 19.1 100 100 ENE 9 15 30.03 1017 1.5 2.414016 0 0
7:55 am 07:55 Cloudy with Mist and Fog 67 19.2 67 19.2 100 100 ENE 9 15 30.03 1017 1 1.609344 0 0
8:15 am 08:15 Cloudy with Mist and Fog 66 19.1 66 19.1 100 100 ENE 9 15 30.03 1017 0.75 1.207008 0 0
8:35 am 08:35 Cloudy with Mist and Fog 67 19.3 67 19.3 100 100 E 9 15 30.03 1017 0.75 1.207008 0 0
8:55 am 08:55 Cloudy with Mist and Fog 67 19.5 67 19.5 100 100 E 12 19 30.03 1017 1 1.609344 0 0
9:15 am 09:15 Cloudy with Mist and Fog 67 19.6 67 19.6 100 100 E 10 17 30.03 1017 1 1.609344 0 0
9:35 am 09:35 Cloudy with Mist and Fog 67 19.7 67 19.7 100 100 E 13 20 30.03 1017 1.5 2.414016 0 0
9:55 am 09:55 Cloudy with Mist and Fog 68 19.8 68 19.8 100 100 E 14 22 30.03 1017 1.75 2.816352 0 0
10:15 am 10:15 Cloudy with Mist and Fog 68 20 68 20 100 100 E 8 13 30.03 1017 2 3.218688 0 0
10:35 am 10:35 Cloudy with Mist and Fog 68 20 68 20 100 100 E 8 13 30.03 1017 4 6.437376 0 0
10:55 am 10:55 Cloudy 68 20.2 68 20.2 100 100 ESE 9 15 30.03 1017 7 11.265408 0 0
11:15 am 11:15 Cloudy 69 20.8 69 20.7 99 99 E 10 17 30 1016 10 16.09344 0 0
11:35 am 11:35 Cloudy 70 21.1 69 20.6 97 97 ESE 13 20 30 1016 10 16.09344 0 0
11:55 am 11:55 Cloudy 70 21.2 69 20.5 96 96 E 10 17 30 1016 10 16.09344 0 0
12:10 pm 12:10 Cloudy 71 21.5 69 20.6 95 95 E 10 17 30 1016 10 16.09344 0 0
12:35 pm 12:35 Cloudy 71 21.9 69 20.8 94 94 E 10 17 30 1016 10 16.09344 0 0
12:55 pm 12:55 Partly Cloudy 72 22.2 70 21 93 93 E 10 17 30 1016 10 16.09344 0 0
1:15 pm 13:15 Partly Cloudy 73 22.5 70 20.9 91 91 E 9 15 30 1016 10 16.09344 0 0
1:35 pm 13:35 Mostly Cloudy 73 23 70 21.1 89 89 E 6 9 30 1016 10 16.09344 0 0
1:55 pm 13:55 Cloudy 73 23 70 21.2 90 90 E 7 11 30 1016 10 16.09344 0 0
2:15 pm 14:15 Partly Cloudy 74 23.1 70 21.2 89 89 ENE 7 11 30 1016 10 16.09344 0 0
2:35 pm 14:35 Partly Cloudy 74 23.5 71 21.6 89 89 E 8 13 30 1016 10 16.09344 0 0
2:55 pm 14:55 Sunny 75 23.9 71 21.4 86 86 ESE 14 22 30 1016 7 11.265408 0 0
3:15 pm 15:15 Sunny 76 24.5 71 21.6 84 84 E 10 17 29.97 1015 10 16.09344 0 0
3:35 pm 15:35 Sunny 77 25 71 21.6 81 81 E 8 13 29.97 1015 10 16.09344 0 0
3:55 pm 15:55 Partly Cloudy 78 25.7 72 22.4 82 82 NE 9 15 29.97 1015 10 16.09344 0 0
4:15 pm 16:15 Mostly Cloudy 78 25.7 73 22.5 83 83 E 8 13 29.94 1014 10 16.09344 0 0
4:35 pm 16:35 Cloudy 78 25.6 72 22.2 82 82 E 8 13 29.94 1014 10 16.09344 0 0
4:55 pm 16:55 Cloudy 78 25.7 73 22.5 83 83 E 10 17 29.94 1014 10 16.09344 0 0
5:15 pm 17:15 Cloudy 79 26 72 22.2 80 80 E 14 22 29.94 1014 10 16.09344 0 0
5:35 pm 17:35 Cloudy 79 26 72 22.1 79 79 E 15 24 29.94 1014 10 16.09344 0 0
5:55 pm 17:55 Cloudy 79 26 72 22.1 79 79 E 12 19 29.94 1014 10 16.09344 0 0
6:15 pm 18:15 Cloudy 79 26 72 22.1 79 79 E 13 20 29.94 1014 10 16.09344 0 0
6:35 pm 18:35 Cloudy 78 25.8 72 22 80 80 E 14 22 29.94 1014 10 16.09344 0 0
6:55 pm 18:55 Mostly Cloudy 79 26 72 22.3 80 80 E 13 20 29.94 1014 10 16.09344 0 0
7:15 pm 19:15 Mostly Cloudy 78 25.7 72 22.2 81 81 E 9 15 29.94 1014 10 16.09344 0 0
7:35 pm 19:35 Mostly Cloudy 77 25.2 72 22 82 82 E 12 19 29.94 1014 10 16.09344 0 0
7:55 pm 19:55 Partly Cloudy 77 25.1 72 22 83 83 E 12 19 29.94 1014 10 16.09344 0 0
8:15 pm 20:15 Sunny 76 24.7 71 21.8 84 84 E 10 17 29.94 1014 10 16.09344 0 0
8:35 pm 20:35 Sunny 76 24.3 71 21.8 86 86 E 10 17 29.94 1014 10 16.09344 0 0
8:55 pm 20:55 Clear 75 24.1 71 21.6 86 86 E 9 15 29.94 1014 10 16.09344 0 0
9:15 pm 21:15 Clear 75 23.7 71 21.5 88 88 E 10 17 30 1016 10 16.09344 0 0
9:35 pm 21:35 Partly Cloudy 74 23.5 70 21.2 87 87 E 9 15 30 1016 10 16.09344 0 0
9:55 pm 21:55 Cloudy 74 23.5 70 21.2 87 87 E 9 15 30 1016 10 16.09344 0 0
10:15 pm 22:15 Cloudy 73 23 71 21.4 91 91 E 7 11 30 1016 10 16.09344 0 0
10:35 pm 22:35 Partly Cloudy 73 23 70 21.3 90 90 ESE 12 19 30 1016 10 16.09344 0 0
10:55 pm 22:55 Clear 73 22.7 70 21.1 91 91 E 9 15 30 1016 10 16.09344 0 0
11:15 pm 23:15 Clear 73 22.6 70 21 91 91 E 10 17 30 1016 10 16.09344 0 0
11:35 pm 23:35 Clear 73 22.5 69 20.8 90 90 E 10 17 30 1016 10 16.09344 0 0
11:55 pm 23:55 Partly Cloudy 72 22.2 69 20.5 90 90 E 10 17 30 1016 10 16.09344 0 0

Powered by AerisWeather